owner,sensor,date,latitude,longitude,relative_humidity,qcFlag 
DISL,ioos:station:DISL:PPTA:1,2017-12-01T00:30:00Z,30.2791,-87.5561,94.1,1111122 
DISL,ioos:station:DISL:PPTA:1,2017-12-01T01:30:00Z,30.2791,-87.5561,95.3,1111122 
DISL,ioos:station:DISL:PPTA:1,2017-12-01T02:30:00Z,30.2791,-87.5561,94.4,1111122 
DISL,ioos:station:DISL:PPTA:1,2017-12-01T03:30:00Z,30.2791,-87.5561,91.6,1111122 
DISL,ioos:station:DISL:PPTA:1,2017-12-01T04:30:00Z,30.2791,-87.5561,93.9,1111122 
DISL,ioos:station:DISL:PPTA:1,2017-12-01T05:30:00Z,30.2791,-87.5561,96.6,1111122 
DISL,ioos:station:DISL:PPTA:1,2017-12-01T06:30:00Z,30.2791,-87.5561,98.5,1111122 
DISL,ioos:station:DISL:PPTA:1,2017-12-01T07:30:00Z,30.2791,-87.5561,99.4,1111122 
DISL,ioos:station:DISL:PPTA:1,2017-12-01T08:30:00Z,30.2791,-87.5561,99.4,1111122 
DISL,ioos:station:DISL:PPTA:1,2017-12-01T09:30:00Z,30.2791,-87.5561,99.4,1111122 
DISL,ioos:station:DISL:PPTA:1,2017-12-01T10:30:00Z,30.2791,-87.5561,97.9,1111122 
DISL,ioos:station:DISL:PPTA:1,2017-12-01T11:30:00Z,30.2791,-87.5561,96.9,1111122 
DISL,ioos:station:DISL:PPTA:1,2017-12-01T12:30:00Z,30.2791,-87.5561,97.6,1111122 
DISL,ioos:station:DISL:PPTA:1,2017-12-01T13:30:00Z,30.2791,-87.5561,98.7,1111122 
DISL,ioos:station:DISL:PPTA:1,2017-12-01T14:30:00Z,30.2791,-87.5561,96.1,1111122 
DISL,ioos:station:DISL:PPTA:1,2017-12-01T15:30:00Z,30.2791,-87.5561,85.5,1111122 
DISL,ioos:station:DISL:PPTA:1,2017-12-01T16:30:00Z,30.2791,-87.5561,80.7,1111122 
DISL,ioos:station:DISL:PPTA:1,2017-12-01T17:30:00Z,30.2791,-87.5561,74.55,1111122 
DISL,ioos:station:DISL:PPTA:1,2017-12-01T18:30:00Z,30.2791,-87.5561,76.81,1111122 
DISL,ioos:station:DISL:PPTA:1,2017-12-01T19:30:00Z,30.2791,-87.5561,77.78,1111122 
DISL,ioos:station:DISL:PPTA:1,2017-12-01T20:30:00Z,30.2791,-87.5561,78.62,1111122 
DISL,ioos:station:DISL:PPTA:1,2017-12-01T21:30:00Z,30.2791,-87.5561,80.3,1111122 
DISL,ioos:station:DISL:PPTA:1,2017-12-01T22:30:00Z,30.2791,-87.5561,78.7,1111122 
DISL,ioos:station:DISL:PPTA:1,2017-12-01T23:30:00Z,30.2791,-87.5561,79.98,1111122 
DISL,ioos:station:DISL:PPTA:1,2017-12-02T00:30:00Z,30.2791,-87.5561,87.4,1111122 
DISL,ioos:station:DISL:PPTA:1,2017-12-02T01:30:00Z,30.2791,-87.5561,89.8,1111122 
DISL,ioos:station:DISL:PPTA:1,2017-12-02T02:30:00Z,30.2791,-87.5561,93.9,1111122 
DISL,ioos:station:DISL:PPTA:1,2017-12-02T03:30:00Z,30.2791,-87.5561,98.5,1111122 
DISL,ioos:station:DISL:PPTA:1,2017-12-02T04:30:00Z,30.2791,-87.5561,99.3,1111122 
DISL,ioos:station:DISL:PPTA:1,2017-12-02T05:30:00Z,30.2791,-87.5561,99.3,1111122 
DISL,ioos:station:DISL:PPTA:1,2017-12-02T06:30:00Z,30.2791,-87.5561,99.3,1111122 
DISL,ioos:station:DISL:PPTA:1,2017-12-02T07:30:00Z,30.2791,-87.5561,99.3,1111122 
DISL,ioos:station:DISL:PPTA:1,2017-12-02T08:30:00Z,30.2791,-87.5561,99.3,1111122 
DISL,ioos:station:DISL:PPTA:1,2017-12-02T09:30:00Z,30.2791,-87.5561,99.2,1111122 
DISL,ioos:station:DISL:PPTA:1,2017-12-02T10:30:00Z,30.2791,-87.5561,99.3,1111122 
DISL,ioos:station:DISL:PPTA:1,2017-12-02T11:30:00Z,30.2791,-87.5561,99.3,1111122 
DISL,ioos:station:DISL:PPTA:1,2017-12-02T12:30:00Z,30.2791,-87.5561,99.3,1111122 
DISL,ioos:station:DISL:PPTA:1,2017-12-02T13:30:00Z,30.2791,-87.5561,99.3,1111122 
DISL,ioos:station:DISL:PPTA:1,2017-12-02T14:30:00Z,30.2791,-87.5561,99.4,1111122 
DISL,ioos:station:DISL:PPTA:1,2017-12-02T15:30:00Z,30.2791,-87.5561,91.3,1111122 
DISL,ioos:station:DISL:PPTA:1,2017-12-02T16:30:00Z,30.2791,-87.5561,82.1,1111122 
DISL,ioos:station:DISL:PPTA:1,2017-12-02T17:30:00Z,30.2791,-87.5561,81.5,1111122 
DISL,ioos:station:DISL:PPTA:1,2017-12-02T18:30:00Z,30.2791,-87.5561,84.4,1111122 
DISL,ioos:station:DISL:PPTA:1,2017-12-02T19:30:00Z,30.2791,-87.5561,79.5,1111122 
DISL,ioos:station:DISL:PPTA:1,2017-12-02T20:30:00Z,30.2791,-87.5561,77.1,1111122 
DISL,ioos:station:DISL:PPTA:1,2017-12-02T21:30:00Z,30.2791,-87.5561,70.78,1111122 
DISL,ioos:station:DISL:PPTA:1,2017-12-02T22:30:00Z,30.2791,-87.5561,49.39,1111122 
DISL,ioos:station:DISL:PPTA:1,2017-12-02T23:30:00Z,30.2791,-87.5561,66.22,1111122 
DISL,ioos:station:DISL:PPTA:1,2017-12-03T00:30:00Z,30.2791,-87.5561,79.16,1111122 
DISL,ioos:station:DISL:PPTA:1,2017-12-03T01:30:00Z,30.2791,-87.5561,76.81,1111122 
DISL,ioos:station:DISL:PPTA:1,2017-12-03T02:30:00Z,30.2791,-87.5561,81.1,1111122 
DISL,ioos:station:DISL:PPTA:1,2017-12-03T03:30:00Z,30.2791,-87.5561,86.5,1111122 
DISL,ioos:station:DISL:PPTA:1,2017-12-03T04:30:00Z,30.2791,-87.5561,88.7,1111122 
DISL,ioos:station:DISL:PPTA:1,2017-12-03T05:30:00Z,30.2791,-87.5561,90.1,1111122 
DISL,ioos:station:DISL:PPTA:1,2017-12-03T06:30:00Z,30.2791,-87.5561,90.0,1111122 
DISL,ioos:station:DISL:PPTA:1,2017-12-03T07:30:00Z,30.2791,-87.5561,91.9,1111122 
DISL,ioos:station:DISL:PPTA:1,2017-12-03T08:30:00Z,30.2791,-87.5561,93.2,1111122 
DISL,ioos:station:DISL:PPTA:1,2017-12-03T09:30:00Z,30.2791,-87.5561,93.8,1111122 
DISL,ioos:station:DISL:PPTA:1,2017-12-03T10:30:00Z,30.2791,-87.5561,92.9,1111122 
DISL,ioos:station:DISL:PPTA:1,2017-12-03T11:30:00Z,30.2791,-87.5561,93.4,1111122 
DISL,ioos:station:DISL:PPTA:1,2017-12-03T12:30:00Z,30.2791,-87.5561,94.4,1111122 
DISL,ioos:station:DISL:PPTA:1,2017-12-03T13:30:00Z,30.2791,-87.5561,95.2,1111122 
DISL,ioos:station:DISL:PPTA:1,2017-12-03T14:30:00Z,30.2791,-87.5561,83.5,1111122 
DISL,ioos:station:DISL:PPTA:1,2017-12-03T15:30:00Z,30.2791,-87.5561,76.16,1111122 
DISL,ioos:station:DISL:PPTA:1,2017-12-03T16:30:00Z,30.2791,-87.5561,70.26,1111122 
DISL,ioos:station:DISL:PPTA:1,2017-12-03T17:30:00Z,30.2791,-87.5561,68.94,1111122 
DISL,ioos:station:DISL:PPTA:1,2017-12-03T18:30:00Z,30.2791,-87.5561,66.25,1111122 
DISL,ioos:station:DISL:PPTA:1,2017-12-03T19:30:00Z,30.2791,-87.5561,61.43,1111122 
DISL,ioos:station:DISL:PPTA:1,2017-12-03T20:30:00Z,30.2791,-87.5561,66.31,1111122 
DISL,ioos:station:DISL:PPTA:1,2017-12-03T21:30:00Z,30.2791,-87.5561,67.85,1111122 
DISL,ioos:station:DISL:PPTA:1,2017-12-03T22:30:00Z,30.2791,-87.5561,71.79,1111122 
DISL,ioos:station:DISL:PPTA:1,2017-12-03T23:30:00Z,30.2791,-87.5561,79.99,1111122 
DISL,ioos:station:DISL:PPTA:1,2017-12-04T00:30:00Z,30.2791,-87.5561,87.0,1111122 
DISL,ioos:station:DISL:PPTA:1,2017-12-04T01:30:00Z,30.2791,-87.5561,90.8,1111122 
DISL,ioos:station:DISL:PPTA:1,2017-12-04T02:00:00Z,30.2791,-87.5561,92.5,1111122 
DISL,ioos:station:DISL:PPTA:1,2017-12-04T03:30:00Z,30.2791,-87.5561,91.2,1111122 
DISL,ioos:station:DISL:PPTA:1,2017-12-04T04:30:00Z,30.2791,-87.5561,87.1,1111122 
DISL,ioos:station:DISL:PPTA:1,2017-12-04T05:30:00Z,30.2791,-87.5561,87.3,1111122 
DISL,ioos:station:DISL:PPTA:1,2017-12-04T06:30:00Z,30.2791,-87.5561,91.0,1111122 
DISL,ioos:station:DISL:PPTA:1,2017-12-04T07:30:00Z,30.2791,-87.5561,95.0,1111122 
DISL,ioos:station:DISL:PPTA:1,2017-12-04T08:30:00Z,30.2791,-87.5561,94.6,1111122 
DISL,ioos:station:DISL:PPTA:1,2017-12-04T09:00:00Z,30.2791,-87.5561,95.8,1111122 
DISL,ioos:station:DISL:PPTA:1,2017-12-04T10:30:00Z,30.2791,-87.5561,92.3,1111122 
DISL,ioos:station:DISL:PPTA:1,2017-12-04T11:30:00Z,30.2791,-87.5561,92.3,1111122 
DISL,ioos:station:DISL:PPTA:1,2017-12-04T12:30:00Z,30.2791,-87.5561,92.0,1111122 
DISL,ioos:station:DISL:PPTA:1,2017-12-04T13:30:00Z,30.2791,-87.5561,91.2,1111122 
DISL,ioos:station:DISL:PPTA:1,2017-12-04T14:30:00Z,30.2791,-87.5561,92.3,1111122 
DISL,ioos:station:DISL:PPTA:1,2017-12-04T15:30:00Z,30.2791,-87.5561,89.1,1111122 
DISL,ioos:station:DISL:PPTA:1,2017-12-04T16:30:00Z,30.2791,-87.5561,89.6,1111122 
DISL,ioos:station:DISL:PPTA:1,2017-12-04T17:30:00Z,30.2791,-87.5561,90.0,1111122 
DISL,ioos:station:DISL:PPTA:1,2017-12-04T18:30:00Z,30.2791,-87.5561,88.6,1111122 
DISL,ioos:station:DISL:PPTA:1,2017-12-04T19:30:00Z,30.2791,-87.5561,89.8,1111122 
DISL,ioos:station:DISL:PPTA:1,2017-12-04T20:30:00Z,30.2791,-87.5561,91.6,1111122 
DISL,ioos:station:DISL:PPTA:1,2017-12-04T21:30:00Z,30.2791,-87.5561,92.3,1111122 
DISL,ioos:station:DISL:PPTA:1,2017-12-04T22:30:00Z,30.2791,-87.5561,93.2,1111122 
DISL,ioos:station:DISL:PPTA:1,2017-12-04T23:30:00Z,30.2791,-87.5561,92.8,1111122 
DISL,ioos:station:DISL:PPTA:1,2017-12-05T00:30:00Z,30.2791,-87.5561,93.0,1111122 
DISL,ioos:station:DISL:PPTA:1,2017-12-05T01:30:00Z,30.2791,-87.5561,94.5,1111122 
DISL,ioos:station:DISL:PPTA:1,2017-12-05T02:30:00Z,30.2791,-87.5561,92.4,1111122 
DISL,ioos:station:DISL:PPTA:1,2017-12-05T03:30:00Z,30.2791,-87.5561,94.8,1111122 
DISL,ioos:station:DISL:PPTA:1,2017-12-05T04:30:00Z,30.2791,-87.5561,93.7,1111122 
DISL,ioos:station:DISL:PPTA:1,2017-12-05T05:30:00Z,30.2791,-87.5561,94.2,1111122 
DISL,ioos:station:DISL:PPTA:1,2017-12-05T06:30:00Z,30.2791,-87.5561,92.7,1111122 
DISL,ioos:station:DISL:PPTA:1,2017-12-05T07:30:00Z,30.2791,-87.5561,89.1,1111122 
DISL,ioos:station:DISL:PPTA:1,2017-12-05T08:30:00Z,30.2791,-87.5561,90.9,1111122 
DISL,ioos:station:DISL:PPTA:1,2017-12-05T09:30:00Z,30.2791,-87.5561,89.0,1111122 
DISL,ioos:station:DISL:PPTA:1,2017-12-05T10:30:00Z,30.2791,-87.5561,88.8,1111122 
DISL,ioos:station:DISL:PPTA:1,2017-12-05T11:30:00Z,30.2791,-87.5561,89.8,1111122 
DISL,ioos:station:DISL:PPTA:1,2017-12-05T12:30:00Z,30.2791,-87.5561,91.6,1111122 
DISL,ioos:station:DISL:PPTA:1,2017-12-05T13:30:00Z,30.2791,-87.5561,89.3,1111122 
DISL,ioos:station:DISL:PPTA:1,2017-12-05T14:30:00Z,30.2791,-87.5561,84.8,1111122 
DISL,ioos:station:DISL:PPTA:1,2017-12-05T15:30:00Z,30.2791,-87.5561,83.8,1111122 
DISL,ioos:station:DISL:PPTA:1,2017-12-05T16:30:00Z,30.2791,-87.5561,85.6,1111122 
DISL,ioos:station:DISL:PPTA:1,2017-12-05T17:30:00Z,30.2791,-87.5561,87.7,1111122 
DISL,ioos:station:DISL:PPTA:1,2017-12-05T18:30:00Z,30.2791,-87.5561,83.9,1111122 
DISL,ioos:station:DISL:PPTA:1,2017-12-05T19:30:00Z,30.2791,-87.5561,83.1,1111122 
DISL,ioos:station:DISL:PPTA:1,2017-12-05T20:30:00Z,30.2791,-87.5561,82.9,1111122 
DISL,ioos:station:DISL:PPTA:1,2017-12-05T21:30:00Z,30.2791,-87.5561,82.2,1111122 
DISL,ioos:station:DISL:PPTA:1,2017-12-05T22:30:00Z,30.2791,-87.5561,92.3,1111122 
DISL,ioos:station:DISL:PPTA:1,2017-12-05T23:30:00Z,30.2791,-87.5561,93.6,1111122 
DISL,ioos:station:DISL:PPTA:1,2017-12-06T00:30:00Z,30.2791,-87.5561,95.2,1111122 
DISL,ioos:station:DISL:PPTA:1,2017-12-06T01:30:00Z,30.2791,-87.5561,95.0,1111122 
DISL,ioos:station:DISL:PPTA:1,2017-12-06T02:30:00Z,30.2791,-87.5561,94.1,1111122 
DISL,ioos:station:DISL:PPTA:1,2017-12-06T03:30:00Z,30.2791,-87.5561,94.1,1111122 
DISL,ioos:station:DISL:PPTA:1,2017-12-06T04:30:00Z,30.2791,-87.5561,95.2,1111122 
DISL,ioos:station:DISL:PPTA:1,2017-12-06T05:30:00Z,30.2791,-87.5561,92.3,1111122 
DISL,ioos:station:DISL:PPTA:1,2017-12-06T06:30:00Z,30.2791,-87.5561,92.6,1111122 
DISL,ioos:station:DISL:PPTA:1,2017-12-06T07:30:00Z,30.2791,-87.5561,93.0,1111122 
DISL,ioos:station:DISL:PPTA:1,2017-12-06T08:30:00Z,30.2791,-87.5561,92.8,1111122 
DISL,ioos:station:DISL:PPTA:1,2017-12-06T09:30:00Z,30.2791,-87.5561,96.1,1111122 
DISL,ioos:station:DISL:PPTA:1,2017-12-06T10:30:00Z,30.2791,-87.5561,94.7,1111122 
DISL,ioos:station:DISL:PPTA:1,2017-12-06T11:30:00Z,30.2791,-87.5561,92.9,1111122 
DISL,ioos:station:DISL:PPTA:1,2017-12-06T12:30:00Z,30.2791,-87.5561,91.5,1111122 
DISL,ioos:station:DISL:PPTA:1,2017-12-06T13:30:00Z,30.2791,-87.5561,89.1,1111122 
DISL,ioos:station:DISL:PPTA:1,2017-12-06T14:30:00Z,30.2791,-87.5561,86.5,1111122 
DISL,ioos:station:DISL:PPTA:1,2017-12-06T15:30:00Z,30.2791,-87.5561,80.1,1111122 
DISL,ioos:station:DISL:PPTA:1,2017-12-06T16:30:00Z,30.2791,-87.5561,81.3,1111122 
DISL,ioos:station:DISL:PPTA:1,2017-12-06T17:30:00Z,30.2791,-87.5561,91.4,1111122 
DISL,ioos:station:DISL:PPTA:1,2017-12-06T18:30:00Z,30.2791,-87.5561,89.0,1111122 
DISL,ioos:station:DISL:PPTA:1,2017-12-06T19:30:00Z,30.2791,-87.5561,83.3,1111122 
DISL,ioos:station:DISL:PPTA:1,2017-12-06T20:30:00Z,30.2791,-87.5561,81.2,1111122 
DISL,ioos:station:DISL:PPTA:1,2017-12-06T21:30:00Z,30.2791,-87.5561,85.9,1111122 
DISL,ioos:station:DISL:PPTA:1,2017-12-06T22:30:00Z,30.2791,-87.5561,91.0,1111122 
DISL,ioos:station:DISL:PPTA:1,2017-12-06T23:30:00Z,30.2791,-87.5561,92.8,1111122 
DISL,ioos:station:DISL:PPTA:1,2017-12-07T00:30:00Z,30.2791,-87.5561,95.2,1111122 
DISL,ioos:station:DISL:PPTA:1,2017-12-07T01:30:00Z,30.2791,-87.5561,91.0,1111122 
DISL,ioos:station:DISL:PPTA:1,2017-12-07T02:30:00Z,30.2791,-87.5561,91.4,1111122 
DISL,ioos:station:DISL:PPTA:1,2017-12-07T03:30:00Z,30.2791,-87.5561,90.4,1111122 
DISL,ioos:station:DISL:PPTA:1,2017-12-07T04:30:00Z,30.2791,-87.5561,90.3,1111122 
DISL,ioos:station:DISL:PPTA:1,2017-12-07T05:30:00Z,30.2791,-87.5561,90.5,1111122 
DISL,ioos:station:DISL:PPTA:1,2017-12-07T06:30:00Z,30.2791,-87.5561,90.7,1111122 
DISL,ioos:station:DISL:PPTA:1,2017-12-07T07:30:00Z,30.2791,-87.5561,89.3,1111122 
DISL,ioos:station:DISL:PPTA:1,2017-12-07T08:30:00Z,30.2791,-87.5561,86.5,1111122 
DISL,ioos:station:DISL:PPTA:1,2017-12-07T09:30:00Z,30.2791,-87.5561,84.9,1111122 
DISL,ioos:station:DISL:PPTA:1,2017-12-07T10:30:00Z,30.2791,-87.5561,81.2,1111122 
DISL,ioos:station:DISL:PPTA:1,2017-12-07T11:30:00Z,30.2791,-87.5561,80.2,1111122 
DISL,ioos:station:DISL:PPTA:1,2017-12-07T12:30:00Z,30.2791,-87.5561,78.0,1111122 
DISL,ioos:station:DISL:PPTA:1,2017-12-07T13:30:00Z,30.2791,-87.5561,73.37,1111122 
DISL,ioos:station:DISL:PPTA:1,2017-12-07T14:30:00Z,30.2791,-87.5561,69.85,1111122 
DISL,ioos:station:DISL:PPTA:1,2017-12-07T15:30:00Z,30.2791,-87.5561,64.65,1111122 
DISL,ioos:station:DISL:PPTA:1,2017-12-07T16:30:00Z,30.2791,-87.5561,67.31,1111122 
DISL,ioos:station:DISL:PPTA:1,2017-12-07T17:30:00Z,30.2791,-87.5561,59.27,1111122 
DISL,ioos:station:DISL:PPTA:1,2017-12-07T18:30:00Z,30.2791,-87.5561,62.96,1111122 
DISL,ioos:station:DISL:PPTA:1,2017-12-07T19:30:00Z,30.2791,-87.5561,74.53,1111122 
DISL,ioos:station:DISL:PPTA:1,2017-12-07T20:00:00Z,30.2791,-87.5561,72.48,1111122 
DISL,ioos:station:DISL:PPTA:1,2017-12-07T22:30:00Z,30.2791,-87.5561,69.8,1111122 
DISL,ioos:station:DISL:PPTA:1,2017-12-07T23:30:00Z,30.2791,-87.5561,81.5,1111122 
DISL,ioos:station:DISL:PPTA:1,2017-12-08T00:30:00Z,30.2791,-87.5561,88.5,1111122 
DISL,ioos:station:DISL:PPTA:1,2017-12-08T01:30:00Z,30.2791,-87.5561,93.9,1111122 
DISL,ioos:station:DISL:PPTA:1,2017-12-08T02:30:00Z,30.2791,-87.5561,94.0,1111122 
DISL,ioos:station:DISL:PPTA:1,2017-12-08T03:30:00Z,30.2791,-87.5561,93.8,1111122 
DISL,ioos:station:DISL:PPTA:1,2017-12-08T04:30:00Z,30.2791,-87.5561,95.1,1111122 
DISL,ioos:station:DISL:PPTA:1,2017-12-08T05:30:00Z,30.2791,-87.5561,95.4,1111122 
DISL,ioos:station:DISL:PPTA:1,2017-12-08T06:30:00Z,30.2791,-87.5561,94.3,1111122 
DISL,ioos:station:DISL:PPTA:1,2017-12-08T07:30:00Z,30.2791,-87.5561,93.6,1111122 
DISL,ioos:station:DISL:PPTA:1,2017-12-08T08:30:00Z,30.2791,-87.5561,94.9,1111122 
DISL,ioos:station:DISL:PPTA:1,2017-12-08T09:30:00Z,30.2791,-87.5561,94.8,1111122 
DISL,ioos:station:DISL:PPTA:1,2017-12-08T10:30:00Z,30.2791,-87.5561,95.2,1111122 
DISL,ioos:station:DISL:PPTA:1,2017-12-08T11:30:00Z,30.2791,-87.5561,95.3,1111122 
DISL,ioos:station:DISL:PPTA:1,2017-12-08T12:30:00Z,30.2791,-87.5561,95.1,1111122 
DISL,ioos:station:DISL:PPTA:1,2017-12-08T13:30:00Z,30.2791,-87.5561,95.1,1111122 
DISL,ioos:station:DISL:PPTA:1,2017-12-08T14:30:00Z,30.2791,-87.5561,94.9,1111122 
DISL,ioos:station:DISL:PPTA:1,2017-12-08T15:30:00Z,30.2791,-87.5561,95.2,1111122 
DISL,ioos:station:DISL:PPTA:1,2017-12-08T16:30:00Z,30.2791,-87.5561,92.4,1111122 
DISL,ioos:station:DISL:PPTA:1,2017-12-08T17:30:00Z,30.2791,-87.5561,90.4,1111122 
DISL,ioos:station:DISL:PPTA:1,2017-12-08T18:30:00Z,30.2791,-87.5561,90.7,1111122 
DISL,ioos:station:DISL:PPTA:1,2017-12-08T19:30:00Z,30.2791,-87.5561,92.3,1111122 
DISL,ioos:station:DISL:PPTA:1,2017-12-08T20:30:00Z,30.2791,-87.5561,93.5,1111122 
DISL,ioos:station:DISL:PPTA:1,2017-12-08T21:30:00Z,30.2791,-87.5561,91.5,1111122 
DISL,ioos:station:DISL:PPTA:1,2017-12-08T22:30:00Z,30.2791,-87.5561,90.6,1111122 
DISL,ioos:station:DISL:PPTA:1,2017-12-08T23:30:00Z,30.2791,-87.5561,89.1,1111122 
DISL,ioos:station:DISL:PPTA:1,2017-12-09T00:30:00Z,30.2791,-87.5561,91.1,1111122 
DISL,ioos:station:DISL:PPTA:1,2017-12-09T01:30:00Z,30.2791,-87.5561,89.9,1111122 
DISL,ioos:station:DISL:PPTA:1,2017-12-09T02:30:00Z,30.2791,-87.5561,91.3,1111122 
DISL,ioos:station:DISL:PPTA:1,2017-12-09T03:30:00Z,30.2791,-87.5561,90.6,1111122 
DISL,ioos:station:DISL:PPTA:1,2017-12-09T04:30:00Z,30.2791,-87.5561,93.0,1111122 
DISL,ioos:station:DISL:PPTA:1,2017-12-09T05:30:00Z,30.2791,-87.5561,93.1,1111122 
DISL,ioos:station:DISL:PPTA:1,2017-12-09T06:30:00Z,30.2791,-87.5561,94.2,1111122 
DISL,ioos:station:DISL:PPTA:1,2017-12-09T07:30:00Z,30.2791,-87.5561,93.7,1111122 
DISL,ioos:station:DISL:PPTA:1,2017-12-09T08:30:00Z,30.2791,-87.5561,92.4,1111122 
DISL,ioos:station:DISL:PPTA:1,2017-12-09T09:30:00Z,30.2791,-87.5561,90.7,1111122 
DISL,ioos:station:DISL:PPTA:1,2017-12-09T10:30:00Z,30.2791,-87.5561,90.4,1111122 
DISL,ioos:station:DISL:PPTA:1,2017-12-09T11:30:00Z,30.2791,-87.5561,89.4,1111122 
DISL,ioos:station:DISL:PPTA:1,2017-12-09T12:30:00Z,30.2791,-87.5561,90.0,1111122 
DISL,ioos:station:DISL:PPTA:1,2017-12-09T13:30:00Z,30.2791,-87.5561,87.0,1111122 
DISL,ioos:station:DISL:PPTA:1,2017-12-09T14:30:00Z,30.2791,-87.5561,77.28,1111122 
DISL,ioos:station:DISL:PPTA:1,2017-12-09T15:30:00Z,30.2791,-87.5561,57.23,1111122 
DISL,ioos:station:DISL:PPTA:1,2017-12-09T16:30:00Z,30.2791,-87.5561,52.49,1111122 
DISL,ioos:station:DISL:PPTA:1,2017-12-09T17:30:00Z,30.2791,-87.5561,46.15,1111122 
DISL,ioos:station:DISL:PPTA:1,2017-12-09T18:30:00Z,30.2791,-87.5561,48.95,1111122 
DISL,ioos:station:DISL:PPTA:1,2017-12-09T19:30:00Z,30.2791,-87.5561,48.07,1111122 
DISL,ioos:station:DISL:PPTA:1,2017-12-09T20:30:00Z,30.2791,-87.5561,46.88,1111122 
DISL,ioos:station:DISL:PPTA:1,2017-12-09T21:30:00Z,30.2791,-87.5561,43.45,1111122 
DISL,ioos:station:DISL:PPTA:1,2017-12-09T22:30:00Z,30.2791,-87.5561,46.19,1111122 
DISL,ioos:station:DISL:PPTA:1,2017-12-09T23:30:00Z,30.2791,-87.5561,60.6,1111122 
DISL,ioos:station:DISL:PPTA:1,2017-12-10T00:30:00Z,30.2791,-87.5561,63.53,1111122 
DISL,ioos:station:DISL:PPTA:1,2017-12-10T01:30:00Z,30.2791,-87.5561,61.75,1111122 
DISL,ioos:station:DISL:PPTA:1,2017-12-10T02:30:00Z,30.2791,-87.5561,58.6,1111122 
DISL,ioos:station:DISL:PPTA:1,2017-12-10T03:30:00Z,30.2791,-87.5561,62.26,1111122 
DISL,ioos:station:DISL:PPTA:1,2017-12-10T04:30:00Z,30.2791,-87.5561,66.4,1111122 
DISL,ioos:station:DISL:PPTA:1,2017-12-10T05:30:00Z,30.2791,-87.5561,70.37,1111122 
DISL,ioos:station:DISL:PPTA:1,2017-12-10T06:30:00Z,30.2791,-87.5561,75.37,1111122 
DISL,ioos:station:DISL:PPTA:1,2017-12-10T07:30:00Z,30.2791,-87.5561,76.43,1111122 
DISL,ioos:station:DISL:PPTA:1,2017-12-10T08:30:00Z,30.2791,-87.5561,77.49,1111122 
DISL,ioos:station:DISL:PPTA:1,2017-12-10T09:30:00Z,30.2791,-87.5561,82.6,1111122 
DISL,ioos:station:DISL:PPTA:1,2017-12-10T10:30:00Z,30.2791,-87.5561,81.7,1111122 
DISL,ioos:station:DISL:PPTA:1,2017-12-10T11:30:00Z,30.2791,-87.5561,77.17,1111122 
DISL,ioos:station:DISL:PPTA:1,2017-12-10T12:30:00Z,30.2791,-87.5561,77.13,1111122 
DISL,ioos:station:DISL:PPTA:1,2017-12-10T13:30:00Z,30.2791,-87.5561,74.57,1111122 
DISL,ioos:station:DISL:PPTA:1,2017-12-10T14:30:00Z,30.2791,-87.5561,64.3,1111122 
DISL,ioos:station:DISL:PPTA:1,2017-12-10T15:30:00Z,30.2791,-87.5561,60.89,1111122 
DISL,ioos:station:DISL:PPTA:1,2017-12-10T16:30:00Z,30.2791,-87.5561,55.4,1111122 
DISL,ioos:station:DISL:PPTA:1,2017-12-10T17:30:00Z,30.2791,-87.5561,44.81,1111122 
DISL,ioos:station:DISL:PPTA:1,2017-12-10T18:30:00Z,30.2791,-87.5561,46.85,1111122 
DISL,ioos:station:DISL:PPTA:1,2017-12-10T19:30:00Z,30.2791,-87.5561,46.59,1111122 
DISL,ioos:station:DISL:PPTA:1,2017-12-10T20:30:00Z,30.2791,-87.5561,38.09,1111122 
DISL,ioos:station:DISL:PPTA:1,2017-12-10T21:30:00Z,30.2791,-87.5561,40.49,1111122 
DISL,ioos:station:DISL:PPTA:1,2017-12-10T22:30:00Z,30.2791,-87.5561,38.47,1111122 
DISL,ioos:station:DISL:PPTA:1,2017-12-10T23:30:00Z,30.2791,-87.5561,54.08,1111122 
DISL,ioos:station:DISL:PPTA:1,2017-12-11T00:30:00Z,30.2791,-87.5561,63.92,1111122 
DISL,ioos:station:DISL:PPTA:1,2017-12-11T01:30:00Z,30.2791,-87.5561,74.7,1111122 
DISL,ioos:station:DISL:PPTA:1,2017-12-11T02:30:00Z,30.2791,-87.5561,76.25,1111122 
DISL,ioos:station:DISL:PPTA:1,2017-12-11T03:30:00Z,30.2791,-87.5561,86.4,1111122 
DISL,ioos:station:DISL:PPTA:1,2017-12-11T04:30:00Z,30.2791,-87.5561,90.1,1111122 
DISL,ioos:station:DISL:PPTA:1,2017-12-11T05:30:00Z,30.2791,-87.5561,90.4,1111122 
DISL,ioos:station:DISL:PPTA:1,2017-12-11T06:30:00Z,30.2791,-87.5561,93.0,1111122 
DISL,ioos:station:DISL:PPTA:1,2017-12-11T07:30:00Z,30.2791,-87.5561,92.7,1111122 
DISL,ioos:station:DISL:PPTA:1,2017-12-11T08:30:00Z,30.2791,-87.5561,92.5,1111122 
DISL,ioos:station:DISL:PPTA:1,2017-12-11T09:00:00Z,30.2791,-87.5561,92.4,1111122 
DISL,ioos:station:DISL:PPTA:1,2017-12-11T10:30:00Z,30.2791,-87.5561,93.3,1111122 
DISL,ioos:station:DISL:PPTA:1,2017-12-11T11:30:00Z,30.2791,-87.5561,95.6,1111122 
DISL,ioos:station:DISL:PPTA:1,2017-12-11T12:30:00Z,30.2791,-87.5561,96.5,1111122 
DISL,ioos:station:DISL:PPTA:1,2017-12-11T13:30:00Z,30.2791,-87.5561,96.7,1111122 
DISL,ioos:station:DISL:PPTA:1,2017-12-11T14:30:00Z,30.2791,-87.5561,65.81,1111122 
DISL,ioos:station:DISL:PPTA:1,2017-12-11T15:30:00Z,30.2791,-87.5561,55.9,1111122 
DISL,ioos:station:DISL:PPTA:1,2017-12-11T16:30:00Z,30.2791,-87.5561,47.3,1111122 
DISL,ioos:station:DISL:PPTA:1,2017-12-11T17:00:00Z,30.2791,-87.5561,46.24,1111122 
DISL,ioos:station:DISL:PPTA:1,2017-12-11T18:30:00Z,30.2791,-87.5561,50.1,1111122 
DISL,ioos:station:DISL:PPTA:1,2017-12-11T20:30:00Z,30.2791,-87.5561,50.8,1111122 
DISL,ioos:station:DISL:PPTA:1,2017-12-11T21:30:00Z,30.2791,-87.5561,52.07,1111122 
DISL,ioos:station:DISL:PPTA:1,2017-12-11T22:30:00Z,30.2791,-87.5561,56.11,1111122 
DISL,ioos:station:DISL:PPTA:1,2017-12-11T23:30:00Z,30.2791,-87.5561,60.32,1111122 
DISL,ioos:station:DISL:PPTA:1,2017-12-12T00:30:00Z,30.2791,-87.5561,61.28,1111122 
DISL,ioos:station:DISL:PPTA:1,2017-12-12T01:30:00Z,30.2791,-87.5561,60.12,1111122 
DISL,ioos:station:DISL:PPTA:1,2017-12-12T02:30:00Z,30.2791,-87.5561,61.21,1111122 
DISL,ioos:station:DISL:PPTA:1,2017-12-12T03:30:00Z,30.2791,-87.5561,63.94,1111122 
DISL,ioos:station:DISL:PPTA:1,2017-12-12T04:30:00Z,30.2791,-87.5561,72.18,1111122 
DISL,ioos:station:DISL:PPTA:1,2017-12-12T05:30:00Z,30.2791,-87.5561,73.96,1111122 
DISL,ioos:station:DISL:PPTA:1,2017-12-12T06:30:00Z,30.2791,-87.5561,70.69,1111122 
DISL,ioos:station:DISL:PPTA:1,2017-12-12T07:30:00Z,30.2791,-87.5561,65.87,1111122 
DISL,ioos:station:DISL:PPTA:1,2017-12-12T08:30:00Z,30.2791,-87.5561,65.97,1111122 
DISL,ioos:station:DISL:PPTA:1,2017-12-12T09:30:00Z,30.2791,-87.5561,65.6,1111122 
DISL,ioos:station:DISL:PPTA:1,2017-12-12T10:30:00Z,30.2791,-87.5561,64.21,1111122 
DISL,ioos:station:DISL:PPTA:1,2017-12-12T11:30:00Z,30.2791,-87.5561,68.84,1111122 
DISL,ioos:station:DISL:PPTA:1,2017-12-12T12:30:00Z,30.2791,-87.5561,69.7,1111122 
DISL,ioos:station:DISL:PPTA:1,2017-12-12T13:30:00Z,30.2791,-87.5561,69.12,1111122 
DISL,ioos:station:DISL:PPTA:1,2017-12-12T14:30:00Z,30.2791,-87.5561,58.11,1111122 
DISL,ioos:station:DISL:PPTA:1,2017-12-12T15:30:00Z,30.2791,-87.5561,48.87,1111122 
DISL,ioos:station:DISL:PPTA:1,2017-12-12T16:30:00Z,30.2791,-87.5561,39.87,1111122 
DISL,ioos:station:DISL:PPTA:1,2017-12-12T17:30:00Z,30.2791,-87.5561,37.51,1111122 
DISL,ioos:station:DISL:PPTA:1,2017-12-12T18:30:00Z,30.2791,-87.5561,36.34,1111122 
DISL,ioos:station:DISL:PPTA:1,2017-12-12T19:30:00Z,30.2791,-87.5561,33.13,1111122 
DISL,ioos:station:DISL:PPTA:1,2017-12-12T20:30:00Z,30.2791,-87.5561,36.66,1111122 
DISL,ioos:station:DISL:PPTA:1,2017-12-12T21:30:00Z,30.2791,-87.5561,35.12,1111122 
DISL,ioos:station:DISL:PPTA:1,2017-12-12T22:30:00Z,30.2791,-87.5561,38.47,1111122 
DISL,ioos:station:DISL:PPTA:1,2017-12-13T09:30:00Z,30.2791,-87.5561,71.04,1111122 
DISL,ioos:station:DISL:PPTA:1,2017-12-13T10:30:00Z,30.2791,-87.5561,71.73,1111122 
DISL,ioos:station:DISL:PPTA:1,2017-12-13T11:30:00Z,30.2791,-87.5561,72.05,1111122 
DISL,ioos:station:DISL:PPTA:1,2017-12-13T12:30:00Z,30.2791,-87.5561,71.06,1111122 
DISL,ioos:station:DISL:PPTA:1,2017-12-13T13:30:00Z,30.2791,-87.5561,69.79,1111122 